Tracking 29892 objects as of 21-Nov-2024
HD Live streaming from Space Station
objects crossing your sky now

FENGYUN 1C DEB

Track FENGYUN 1C DEB now!
10-day predictions


NORAD ID: 29868
Int'l Code: 1999-025FN
Perigee: 510.5 km
Apogee: 819.4 km
Inclination: 98.0 °
Period: 97.9 minutes
Semi major axis: 7035 km
RCS: 0.022 m2 (small)
Launch date: May 10, 1999
Source: People's Republic of China (PRC)
Launch site: Taiyaun Space Center, China (TSC)

Note: This is SATELLITE DEBRIS
Your satellite tracking list
Your tracking list is empty




NASA's NSSDC Master Catalog

Two Line Element Set (TLE):
1 29868U 99025FN  24325.96150642  .00012676  00000-0  14200-2 0  9998
2 29868  98.0038  10.9535 0219514 167.3493 315.6854 14.71027555945930
Source of the keplerian elements: AFSPC